PICSAT (43132 NORAD) Tracking and Keplerian Element Data

This shows tracking and keplerian element data for the satellite.

Feedback or suggestion? Click here.




ElementValue
Catalog43132
NamePICSAT
Epoch Orbit4681
Epoch Day319.96406601
Epoch Year2018
RAAN22.9358
Inclination97.517
Eccentricity0.0008323
Argument of Perigee290.6555
Mean Anonmoly69.3788
Mean Motion15.2302591
Decay Rate1.33E-05
L11 43132U 18004X 18319.96406601 .00001330 00000-0 59551-4 0 9996
L22 43132 97.5170 22.9358 0008323 290.6555 69.3788 15.23025910 46819

Live tracking and technical data element details for PICSAT (NORAD 43132). PICSAT can be tracked NOW for your location showing map with azimuth and elevation plus other details from your city location.

Track the satellite on the map from your city or location and see movement details for azimuth, elevation, latitude, longitude, range, height, and movement on the map or in text.







IsCatalogInMostPopularTable: catalog: 43132, numindb: 191
Update: records affected: 1



GetName: 43132 PICSAT

Hit Count: updated at: Fri, 16 Nov 2018 09:12:59 GMT